Location: Brno
(49.2000°N, 16.6330°E)
Time: 07:37:49
(UTC+02:00)

BREEZE M DEB (TANK) - Visible Passes

Search period start: 21 April 2018 00:00
Search period end: 01 May 2018 00:00
Orbit: 288 x 11957 km, 49.5° (Epoch: 20 April)

Date Brightness Start Highest point End Pass type
(mag) Time Alt. Az. Time Alt. Az. Time Alt. Az.
21 Apr 3.6 22:37:13 10° W 22:51:02 89° NNW 22:53:13 34° E visible
22 Apr 4.1 21:41:30 10° WSW 21:59:51 83° SSE 22:04:15 13° E visible
23 Apr 4.6 20:44:56 10° WSW 21:08:31 73° SSE 21:14:11 10° ENE visible
24 Apr 4.8 01:04:49 10° WNW 01:07:05 19° W 01:07:05 19° W visible
25 Apr 3.5 00:11:55 10° WNW 00:18:04 47° W 00:18:04 47° W visible
25 Apr 2.9 23:18:12 10° W 23:28:24 89° NNE 23:29:02 66° E visible
26 Apr 3.6 22:23:26 10° W 22:37:18 87° N 22:39:59 25° E visible
27 Apr 4.2 21:27:32 10° WSW 21:46:04 88° SSE 21:50:49 10° E visible
28 Apr 4.7 20:30:30 10° WSW 20:54:40 80° SSE 21:00:21 10° ENE visible
29 Apr 4.6 00:50:58 10° WNW 00:53:40 21° W 00:53:40 21° W visible
29 Apr 3.1 23:57:59 10° WNW 00:04:35 53° WSW 00:04:35 53° WSW visible
30 Apr 2.9 23:04:15 10° W 23:14:29 85° SSW 23:15:30 53° ESE visible
